GW2490 Weather Reports


Display with metric or nautical units.
time (UTC)temp
F
wind
direction
speed
MPH
gust
MPH
rain 1hr
in
rain 24hr
in
rain mn
in
humidity
%
barometer
mb
20260508153649 0 0.0 0.0 0.00 0.00 0.00
20260508153458 49 95 1.0 3.0 0.00 0.00 0.00 83 1017.7
20260508153149 0 0.0 0.0 0.00 0.00 0.00
20260508152958 49 76 4.0 6.0 0.00 0.00 0.00 85 1017.6
20260508152649 0 0.0 0.0 0.00 0.00 0.00
20260508152458 49 111 4.0 5.0 0.00 0.00 0.00 86 1017.5
20260508152150 0 0.0 0.0 0.00 0.00 0.00
20260508151958 49 136 4.0 4.0 0.00 0.00 0.00 86 1017.5
20260508151655 0 0.0 0.0 0.00 0.00 0.00
20260508151457 49 143 5.0 7.0 0.00 0.00 0.00 86 1017.4
20260508151150 0 0.0 0.0 0.00 0.00 0.00
20260508150958 49 126 4.0 5.0 0.00 0.00 0.00 86 1017.3
20260508150649 0 0.0 0.0 0.00 0.00 0.00
20260508150457 48 105 7.0 8.0 0.00 0.00 0.00 85 1016.9
20260508150150 0 0.0 0.0 0.00 0.00 0.00
20260508145958 48 119 4.0 6.0 0.00 0.00 0.00 85 1017.1
20260508145650 0 0.0 0.0 0.00 0.00 0.00
20260508145457 48 132 4.0 5.0 0.00 0.00 0.00 85 1017.3
20260508145154 0 0.0 0.0 0.00 0.00 0.00
20260508144527 49 111 6.0 8.0 0.00 0.00 0.00 84 1017.1
20260508143958 49 130 4.0 5.0 0.00 0.00 0.00 84 1017.0
20260508143647 0 0.0 0.0 0.00 0.00 0.00
20260508143457 49 110 7.0 8.0 0.00 0.00 0.00 83 1016.8
20260508143147 0 0.0 0.0 0.00 0.00 0.00
20260508142957 49 113 6.0 8.0 0.00 0.00 0.00 84 1016.8
20260508142648 0 0.0 0.0 0.00 0.00 0.00
20260508142457 49 120 5.0 7.0 0.00 0.00 0.00 86 1016.6
20260508142146 0 0.0 0.0 0.00 0.00 0.00
20260508141958 49 126 5.0 6.0 0.00 0.00 0.00 85 1016.6
20260508141458 49 109 6.0 7.0 0.00 0.00 0.00 82 1016.6
20260508141141 0 0.0 0.0 0.00 0.00 0.00
20260508141003 49 134 3.0 4.0 0.00 0.00 0.00 83 1016.6
20260508140642 0 0.0 0.0 0.00 0.00 0.00
20260508140459 49 121 5.0 6.0 0.00 0.00 0.00 83 1016.5
20260508140154 0 0.0 0.0 0.00 0.00 0.00
20260508135957 49 112 5.0 6.0 0.00 0.00 0.00 83 1016.5
20260508135642 0 0.0 0.0 0.00 0.00 0.00
20260508135457 50 122 4.0 5.0 0.00 0.00 0.00 82 1016.5
20260508135142 0 0.0 0.0 0.00 0.00 0.00
20260508134957 50 107 5.0 6.0 0.00 0.00 0.00 82 1016.4
20260508134458 50 105 6.0 6.0 0.00 0.00 0.00 82 1016.2
20260508134139 0 0.0 0.0 0.00 0.00 0.00
20260508133958 50 109 5.0 6.0 0.00 0.00 0.00 82 1016.2
20260508133636 0 0.0 0.0 0.00 0.00 0.00
20260508133457 50 106 5.0 7.0 0.00 0.00 0.00 82 1016.1
20260508133136 0 0.0 0.0 0.00 0.00 0.00
20260508132958 50 110 6.0 7.0 0.00 0.00 0.00 82 1016.1
20260508132635 0 0.0 0.0 0.00 0.00 0.00
20260508132459 50 106 4.0 6.0 0.00 0.00 0.00 82 1016.2
20260508132134 0 0.0 0.0 0.00 0.00 0.00
20260508132004 50 109 5.0 6.0 0.00 0.00 0.00 82 1016.2
20260508131457 49 104 6.0 8.0 0.00 0.00 0.00 82 1016.2
20260508131005 49 98 6.0 8.0 0.00 0.00 0.00 82 1016.0
20260508130458 49 128 3.0 4.0 0.00 0.00 0.00 82 1016.1
20260508125958 49 104 6.0 8.0 0.00 0.00 0.00 82 1016.1
20260508125634 0 0.0 0.0 0.00 0.00 0.00
20260508125458 49 109 5.0 6.0 0.00 0.00 0.00 82 1016.1
20260508125133 0 0.0 0.0 0.00 0.00 0.00
20260508124957 49 98 6.0 8.0 0.00 0.00 0.00 83 1016.0
20260508124457 49 97 5.0 7.0 0.00 0.00 0.00 83 1016.1
20260508123957 50 116 4.0 5.0 0.00 0.00 0.00 82 1016.2
20260508123457 50 108 5.0 7.0 0.00 0.00 0.00 83 1016.0
20260508123130 0 0.0 0.0 0.00 0.00 0.00
20260508122957 49 116 4.0 5.0 0.00 0.00 0.00 82 1016.0
20260508122638 0 0.0 0.0 0.00 0.00 0.00
20260508122119 0 0.0 0.0 0.00 0.00 0.00
20260508122022 49 113 4.0 6.0 0.00 0.00 0.00 83 1016.1
20260508121620 0 0.0 0.0 0.00 0.00 0.00
20260508121457 49 109 4.0 5.0 0.00 0.00 0.00 83 1016.0
20260508121120 0 0.0 0.0 0.00 0.00 0.00
20260508120958 49 108 5.0 6.0 0.00 0.00 0.00 83 1016.0
20260508120618 0 0.0 0.0 0.00 0.00 0.00
20260508120458 49 114 5.0 6.0 0.00 0.00 0.00 84 1016.1
20260508120118 0 0.0 0.0 0.00 0.00 0.00
20260508115958 49 112 5.0 6.0 0.00 0.00 0.00 84 1016.1
20260508115458 49 114 4.0 5.0 0.00 0.00 0.00 84 1016.1
20260508114957 49 113 5.0 6.0 0.00 0.00 0.00 84 1016.0
20260508114457 49 108 5.0 6.0 0.00 0.00 0.00 84 1016.0
20260508114145 0 0.0 0.0 0.00 0.00 0.00
20260508113957 49 117 4.0 5.0 0.00 0.00 0.00 84 1015.9
20260508113617 0 0.0 0.0 0.00 0.00 0.00
20260508113457 50 117 4.0 5.0 0.00 0.00 0.00 83 1015.8
20260508113108 0 0.0 0.0 0.00 0.00 0.00
20260508113001 51 118 4.0 5.0 0.00 0.00 0.00 83 1015.7
20260508112609 0 0.0 0.0 0.00 0.00 0.00
20260508112457 51 122 4.0 5.0 0.00 0.00 0.00 82 1015.7
20260508112108 0 0.0 0.0 0.00 0.00 0.00
20260508111957 51 122 3.0 4.0 0.00 0.00 0.00 82 1015.6
20260508111609 0 0.0 0.0 0.00 0.00 0.00
20260508111459 51 116 6.0 7.0 0.00 0.00 0.00 82 1015.6
20260508111108 0 0.0 0.0 0.00 0.00 0.00
20260508110957 51 116 5.0 6.0 0.00 0.00 0.00 82 1015.7
20260508110609 0 0.0 0.0 0.00 0.00 0.00
20260508110458 51 116 5.0 7.0 0.00 0.00 0.00 81 1015.6
20260508105957 52 112 5.0 6.0 0.00 0.00 0.00 81 1015.7
20260508105457 52 125 4.0 6.0 0.00 0.00 0.00 81 1015.7
20260508104957 52 112 5.0 7.0 0.00 0.00 0.00 80 1015.7
20260508104609 0 0.0 0.0 0.00 0.00 0.00
20260508104458 51 110 6.0 7.0 0.00 0.00 0.00 81 1015.7
20260508104108 0 0.0 0.0 0.00 0.00 0.00
20260508103957 51 108 5.0 6.0 0.00 0.00 0.00 81 1015.7
20260508103607 0 0.0 0.0 0.00 0.00 0.00
20260508103457 52 113 4.0 6.0 0.00 0.00 0.00 80 1015.7
20260508103108 0 0.0 0.0 0.00 0.00 0.00
20260508102957 52 113 5.0 6.0 0.00 0.00 0.00 80 1015.7
20260508102607 0 0.0 0.0 0.00 0.00 0.00
20260508102458 52 121 4.0 5.0 0.00 0.00 0.00 81 1015.7
20260508102108 0 0.0 0.0 0.00 0.00 0.00
20260508101958 52 126 3.0 4.0 0.00 0.00 0.00 80 1015.7
20260508101458 52 106 5.0 6.0 0.00 0.00 0.00 81 1015.7
20260508101108 0 0.0 0.0 0.00 0.00 0.00
20260508100957 52 108 4.0 6.0 0.00 0.00 0.00 81 1015.7
20260508100608 0 0.0 0.0 0.00 0.00 0.00
20260508100457 52 114 4.0 5.0 0.00 0.00 0.00 81 1015.7
20260508100108 0 0.0 0.0 0.00 0.00 0.00
20260508095957 52 109 4.0 5.0 0.00 0.00 0.00 81 1015.7
20260508095608 0 0.0 0.0 0.00 0.00 0.00
20260508095457 51 104 5.0 7.0 0.00 0.00 0.00 81 1015.6
20260508095108 0 0.0 0.0 0.00 0.00 0.00
20260508094957 51 100 5.0 7.0 0.00 0.00 0.00 82 1015.6
20260508094457 51 106 4.0 4.0 0.00 0.00 0.00 82 1015.6
20260508094108 0 0.0 0.0 0.00 0.00 0.00
20260508093958 52 111 4.0 5.0 0.00 0.00 0.00 81 1015.6
20260508093607 0 0.0 0.0 0.00 0.00 0.00
20260508093457 52 111 5.0 6.0 0.00 0.00 0.00 81 1015.6
20260508093108 0 0.0 0.0 0.00 0.00 0.00
20260508092958 52 120 4.0 4.0 0.00 0.00 0.00 81 1015.6
20260508092607 0 0.0 0.0 0.00 0.00 0.00
20260508092457 52 112 4.0 6.0 0.00 0.00 0.00 82 1015.7
20260508092107 0 0.0 0.0 0.00 0.00 0.00
20260508091957 52 111 4.0 5.0 0.00 0.00 0.00 82 1015.7
20260508091607 0 0.0 0.0 0.00 0.00 0.00
20260508091457 52 111 4.0 4.0 0.00 0.00 0.00 82 1015.7
20260508091108 0 0.0 0.0 0.00 0.00 0.00
20260508090958 52 113 4.0 5.0 0.00 0.00 0.00 82 1015.7
20260508090608 0 0.0 0.0 0.00 0.00 0.00
20260508090457 52 118 3.0 4.0 0.00 0.00 0.00 81 1015.7
20260508090108 0 0.0 0.0 0.00 0.00 0.00
20260508085957 52 114 4.0 5.0 0.00 0.00 0.00 81 1015.6
20260508085608 0 0.0 0.0 0.00 0.00 0.00
20260508085457 52 110 4.0 5.0 0.00 0.00 0.00 81 1015.6
20260508085108 0 0.0 0.0 0.00 0.00 0.00
20260508084958 52 116 4.0 5.0 0.00 0.00 0.00 81 1015.6
20260508084606 0 0.0 0.0 0.00 0.00 0.00
20260508084457 52 104 4.0 6.0 0.00 0.00 0.00 81 1015.7
20260508084105 0 0.0 0.0 0.00 0.00 0.00
20260508083957 52 109 4.0 5.0 0.00 0.00 0.00 81 1015.7
20260508083602 0 0.0 0.0 0.00 0.00 0.00
20260508083457 52 106 4.0 6.0 0.00 0.00 0.00 81 1015.7
20260508083102 0 0.0 0.0 0.00 0.00 0.00
20260508082957 52 103 4.0 6.0 0.00 0.00 0.00 81 1015.7
20260508082602 0 0.0 0.0 0.00 0.00 0.00
20260508082458 52 107 4.0 6.0 0.00 0.00 0.00 81 1015.7
20260508082103 0 0.0 0.0 0.00 0.00 0.00
20260508081957 52 107 4.0 5.0 0.00 0.00 0.00 81 1015.8
20260508081603 0 0.0 0.0 0.00 0.00 0.00
20260508081457 52 102 5.0 6.0 0.00 0.00 0.00 80 1015.8
20260508081102 0 0.0 0.0 0.00 0.00 0.00
20260508080957 52 116 4.0 5.0 0.00 0.00 0.00 79 1015.8
20260508080457 52 114 4.0 5.0 0.00 0.00 0.00 80 1015.8
20260508075957 52 108 5.0 6.0 0.00 0.00 0.00 79 1015.8
20260508075458 52 121 4.0 5.0 0.00 0.00 0.00 79 1015.9
20260508075102 0 0.0 0.0 0.00 0.00 0.00
20260508074957 52 114 4.0 5.0 0.00 0.00 0.00 80 1015.9
20260508074603 0 0.0 0.0 0.00 0.00 0.00
20260508074457 52 112 4.0 5.0 0.00 0.00 0.00 80 1016.0
20260508074100 0 0.0 0.0 0.00 0.00 0.00
20260508073957 52 89 5.0 7.0 0.00 0.00 0.00 80 1016.0
20260508073600 0 0.0 0.0 0.00 0.00 0.00
20260508073458 52 114 4.0 4.0 0.00 0.00 0.00 80 1016.1
20260508072957 52 111 4.0 5.0 0.00 0.00 0.00 81 1016.1
20260508072557 0 0.0 0.0 0.00 0.00 0.00
20260508072457 52 104 4.0 6.0 0.00 0.00 0.00 80 1016.2
20260508072058 0 0.0 0.0 0.00 0.00 0.00
20260508071957 52 98 4.0 5.0 0.00 0.00 0.00 80 1016.1
20260508071557 0 0.0 0.0 0.00 0.00 0.00
20260508071457 52 113 5.0 6.0 0.00 0.00 0.00 80 1016.2
20260508071058 0 0.0 0.0 0.00 0.00 0.00
20260508070958 52 118 4.0 5.0 0.00 0.00 0.00 80 1016.2
20260508070558 0 0.0 0.0 0.00 0.00 0.00
20260508070458 52 112 5.0 6.0 0.00 0.00 0.00 80 1016.1
20260508070059 0 0.0 0.0 0.00 0.00 0.00
20260508065957 52 109 4.0 5.0 0.00 0.00 0.00 80 1016.2
20260508065559 0 0.0 0.0 0.00 0.00 0.00
20260508065457 52 112 4.0 5.0 0.00 0.00 0.00 80 1016.2
20260508065058 0 0.0 0.0 0.00 0.00 0.00
20260508064958 52 105 6.0 7.0 0.00 0.00 0.00 80 1016.2
20260508064558 0 0.0 0.0 0.00 0.00 0.00
20260508064458 52 112 4.0 6.0 0.00 0.00 0.00 80 1016.2
20260508064058 0 0.0 0.0 0.00 0.00 0.00
20260508063958 52 103 5.0 6.0 0.00 0.00 0.00 80 1016.4
20260508063559 0 0.0 0.0 0.00 0.00 0.00
20260508063457 52 109 4.0 5.0 0.00 0.00 0.00 80 1016.4
20260508063056 0 0.0 0.0 0.00 0.00 0.00
20260508062958 52 119 4.0 6.0 0.00 0.00 0.00 80 1016.4
20260508062555 0 0.0 0.0 0.00 0.00 0.00
20260508062457 52 107 4.0 6.0 0.00 0.00 0.00 80 1016.4
20260508062055 0 0.0 0.0 0.00 0.00 0.00
20260508061957 52 106 6.0 8.0 0.00 0.00 0.00 80 1016.5
20260508061555 0 0.0 0.0 0.00 0.00 0.00
20260508061457 52 112 5.0 6.0 0.00 0.00 0.00 80 1016.5
20260508061056 0 0.0 0.0 0.00 0.00 0.00
20260508060957 51 116 6.0 7.0 0.00 0.00 0.00 80 1016.5
20260508060457 51 118 4.0 6.0 0.00 0.00 0.00 81 1016.5
20260508055957 52 110 4.0 5.0 0.00 0.00 0.00 80 1016.5
20260508055556 0 0.0 0.0 0.00 0.00 0.00
20260508055458 52 126 4.0 5.0 0.00 0.00 0.00 80 1016.6
20260508055056 0 0.0 0.0 0.00 0.00 0.00
20260508054959 52 128 4.0 5.0 0.00 0.00 0.00 80 1016.6
20260508054557 0 0.0 0.0 0.00 0.00 0.00
20260508054457 51 97 6.0 8.0 0.00 0.00 0.00 80 1016.6
20260508054056 0 0.0 0.0 0.00 0.00 0.00
20260508053957 51 88 5.0 7.0 0.00 0.00 0.00 80 1016.7
20260508053554 0 0.0 0.0 0.00 0.00 0.00
20260508053458 51 120 4.0 6.0 0.00 0.00 0.00 80 1016.6
20260508053053 0 0.0 0.0 0.00 0.00 0.00
20260508052957 51 111 5.0 6.0 0.00 0.00 0.00 81 1016.5
20260508052553 0 0.0 0.0 0.00 0.00 0.00
20260508052457 51 101 6.0 8.0 0.00 0.00 0.00 81 1016.5
20260508052054 0 0.0 0.0 0.00 0.00 0.00
20260508051957 51 116 4.0 6.0 0.00 0.00 0.00 81 1016.5
20260508051554 0 0.0 0.0 0.00 0.00 0.00
20260508051457 51 105 5.0 6.0 0.00 0.00 0.00 81 1016.5
20260508050958 51 109 4.0 5.0 0.00 0.00 0.00 81 1016.5
20260508050553 0 0.0 0.0 0.00 0.00 0.00
20260508050457 51 114 4.0 5.0 0.00 0.00 0.00 81 1016.5
20260508050054 0 0.0 0.0 0.00 0.00 0.00
20260508045957 51 100 5.0 6.0 0.00 0.00 0.00 80 1016.5
20260508045554 0 0.0 0.0 0.00 0.00 0.00
20260508045458 51 106 4.0 5.0 0.00 0.00 0.00 80 1016.5
20260508045054 0 0.0 0.0 0.00 0.00 0.00
20260508044957 51 106 5.0 6.0 0.00 0.00 0.00 80 1016.5
20260508044554 0 0.0 0.0 0.00 0.00 0.00
20260508044457 51 114 4.0 5.0 0.00 0.00 0.00 80 1016.6
20260508044054 0 0.0 0.0 0.00 0.00 0.00
20260508043957 51 107 4.0 5.0 0.00 0.00 0.00 79 1016.6
20260508043552 0 0.0 0.0 0.00 0.00 0.00
20260508043457 51 93 5.0 6.0 0.00 0.00 0.00 79 1016.7
20260508043051 0 0.0 0.0 0.00 0.00 0.00
20260508042957 51 94 5.0 6.0 0.00 0.00 0.00 80 1016.7
20260508042457 51 100 4.0 6.0 0.00 0.00 0.00 79 1016.8
20260508042052 0 0.0 0.0 0.00 0.00 0.00
20260508041958 51 99 5.0 6.0 0.00 0.00 0.00 80 1016.9
20260508041552 0 0.0 0.0 0.00 0.00 0.00
20260508041457 51 98 4.0 6.0 0.00 0.00 0.00 80 1016.9
20260508041052 0 0.0 0.0 0.00 0.00 0.00
20260508040957 51 104 4.0 5.0 0.00 0.00 0.00 80 1016.9
20260508040552 0 0.0 0.0 0.00 0.00 0.00
20260508040458 51 106 5.0 6.0 0.00 0.00 0.00 81 1016.8
20260508040051 0 0.0 0.0 0.00 0.00 0.00
20260508035957 52 111 4.0 5.0 0.00 0.00 0.00 81 1016.8
20260508035552 0 0.0 0.0 0.00 0.00 0.00
20260508035457 52 100 4.0 5.0 0.00 0.00 0.00 79 1016.8
20260508035051 0 0.0 0.0 0.00 0.00 0.00
20260508034957 52 92 4.0 5.0 0.00 0.00 0.00 79 1016.8
20260508034552 0 0.0 0.0 0.00 0.00 0.00
20260508034457 52 100 4.0 5.0 0.00 0.00 0.00 79 1016.8
20260508033957 52 103 4.0 4.0 0.00 0.00 0.00 79 1016.8
20260508033552 0 0.0 0.0 0.00 0.00 0.00
20260508033457 52 107 3.0 4.0 0.00 0.00 0.00 77 1016.7
20260508033049 0 0.0 0.0 0.00 0.00 0.00
20260508032957 52 108 4.0 5.0 0.00 0.00 0.00 77 1016.7
20260508032550 0 0.0 0.0 0.00 0.00 0.00
20260508032458 52 98 4.0 5.0 0.00 0.00 0.00 78 1016.7
20260508032049 0 0.0 0.0 0.00 0.00 0.00
20260508031957 52 108 3.0 4.0 0.00 0.00 0.00 79 1016.7
20260508031550 0 0.0 0.0 0.00 0.00 0.00
20260508031458 53 112 4.0 5.0 0.00 0.00 0.00 78 1016.7
20260508031049 0 0.0 0.0 0.00 0.00 0.00
20260508030957 53 113 3.0 3.0 0.00 0.00 0.00 78 1016.7
20260508030550 0 0.0 0.0 0.00 0.00 0.00
20260508030457 53 118 3.0 4.0 0.00 0.00 0.00 77 1016.7
20260508030049 0 0.0 0.0 0.00 0.00 0.00
20260508025957 54 120 3.0 4.0 0.00 0.00 0.00 76 1016.8
20260508025550 0 0.0 0.0 0.00 0.00 0.00
20260508025458 54 124 3.0 4.0 0.00 0.00 0.00 75 1016.7
20260508025050 0 0.0 0.0 0.00 0.00 0.00
20260508024957 55 112 2.0 3.0 0.00 0.00 0.00 75 1016.8
20260508024550 0 0.0 0.0 0.00 0.00 0.00
20260508024507 55 133 3.0 3.0 0.00 0.00 0.00 75 1016.9
20260508024050 0 0.0 0.0 0.00 0.00 0.00
20260508023958 56 128 2.0 3.0 0.00 0.00 0.00 75 1016.9
20260508023547 0 0.0 0.0 0.00 0.00 0.00
20260508023457 56 135 2.0 3.0 0.00 0.00 0.00 74 1017.0
20260508023048 0 0.0 0.0 0.00 0.00 0.00
20260508022957 56 130 2.0 3.0 0.00 0.00 0.00 74 1017.1
20260508022548 0 0.0 0.0 0.00 0.00 0.00
20260508022457 56 131 3.0 4.0 0.00 0.00 0.00 74 1017.1
20260508022048 0 0.0 0.0 0.00 0.00 0.00
20260508021957 56 125 2.0 3.0 0.00 0.00 0.00 75 1017.1
20260508021549 0 0.0 0.0 0.00 0.00 0.00
20260508021457 56 140 2.0 5.0 0.00 0.00 0.00 74 1017.1
20260508021048 0 0.0 0.0 0.00 0.00 0.00
20260508020957 56 126 2.0 4.0 0.00 0.00 0.00 74 1017.1
20260508020547 0 0.0 0.0 0.00 0.00 0.00
20260508020457 57 116 4.0 6.0 0.00 0.00 0.00 73 1017.0
20260508020048 0 0.0 0.0 0.00 0.00 0.00
20260508015959 58 144 3.0 4.0 0.00 0.00 0.00 72 1017.1
20260508015548 0 0.0 0.0 0.00 0.00 0.00
20260508015457 58 148 2.0 3.0 0.00 0.00 0.00 71 1017.1
20260508014957 58 113 3.0 4.0 0.00 0.00 0.00 70 1017.0
20260508014457 58 135 4.0 5.0 0.00 0.00 0.00 71 1017.1
20260508014045 0 0.0 0.0 0.00 0.00 0.00
20260508013958 59 131 3.0 5.0 0.00 0.00 0.00 71 1017.1
20260508013543 0 0.0 0.0 0.00 0.00 0.00
20260508013457 59 146 2.0 4.0 0.00 0.00 0.00 71 1017.1
20260508013042 0 0.0 0.0 0.00 0.00 0.00
20260508012957 59 155 3.0 4.0 0.00 0.00 0.00 71 1017.2
20260508012543 0 0.0 0.0 0.00 0.00 0.00
20260508012457 58 133 2.0 3.0 0.00 0.00 0.00 71 1017.3
20260508012043 0 0.0 0.0 0.00 0.00 0.00
20260508011958 58 150 3.0 4.0 0.00 0.00 0.00 72 1017.3
20260508011543 0 0.0 0.0 0.00 0.00 0.00
20260508011457 57 123 2.0 3.0 0.00 0.00 0.00 73 1017.3
20260508011042 0 0.0 0.0 0.00 0.00 0.00
20260508010957 57 165 3.0 5.0 0.00 0.00 0.00 73 1017.4
20260508010543 0 0.0 0.0 0.00 0.00 0.00
20260508010457 57 134 4.0 5.0 0.00 0.00 0.00 73 1017.5
20260508010042 0 0.0 0.0 0.00 0.00 0.00
20260508005957 57 121 3.0 4.0 0.00 0.00 0.00 73 1017.5
20260508005457 57 140 2.0 3.0 0.00 0.00 0.00 74 1017.6
20260508005043 0 0.0 0.0 0.00 0.00 0.00
20260508004957 57 142 2.0 4.0 0.00 0.00 0.00 73 1017.6
20260508004543 0 0.0 0.0 0.00 0.00 0.00
20260508004457 58 133 2.0 4.0 0.00 0.00 0.00 73 1017.7
20260508004044 0 0.0 0.0 0.00 0.00 0.00
20260508003957 57 124 3.0 5.0 0.00 0.00 0.00 73 1017.7
20260508003541 0 0.0 0.0 0.00 0.00 0.00
20260508003457 58 156 5.0 6.0 0.00 0.00 0.00 74 1017.7
20260508003037 0 0.0 0.0 0.00 0.00 0.00
20260508002957 58 163 3.0 5.0 0.00 0.00 0.00 73 1017.7
20260508002538 0 0.0 0.0 0.00 0.00 0.00
20260508002458 58 167 3.0 4.0 0.00 0.00 0.00 74 1017.8
20260508002037 0 0.0 0.0 0.00 0.00 0.00
20260508001957 58 171 4.0 6.0 0.00 0.00 0.00 73 1017.7
20260508001538 0 0.0 0.0 0.00 0.00 0.00
20260508001457 58 163 3.0 4.0 0.00 0.00 0.00 74 1017.7
20260508001037 0 0.0 0.0 0.00 0.00 0.00
20260508000957 59 152 2.0 4.0 0.00 0.00 0.00 72 1017.7
20260508000458 59 177 5.0 7.0 0.00 0.00 0.00 72 1017.7
20260508000038 0 0.0 0.0 0.00 0.00 0.00
20260508000000 59 134 3.0 5.0 0.00 0.00 0.00 72 1017.7
20260507235457 60 169 5.0 7.0 0.00 0.00 0.00 71 1017.6
20260507235038 0 0.0 0.0 0.00 0.00 0.00
20260507234958 59 201 2.0 3.0 0.00 0.00 0.00 72 1017.6
20260507234539 0 0.0 0.0 0.00 0.00 0.00
20260507234457 59 165 4.0 7.0 0.00 0.00 0.00 73 1017.7
20260507234035 0 0.0 0.0 0.00 0.00 0.00
20260507233957 59 186 2.0 4.0 0.00 0.00 0.00 72 1017.7
20260507233535 0 0.0 0.0 0.00 0.00 0.00
20260507233457 59 163 3.0 4.0 0.00 0.00 0.00 74 1017.7
20260507233035 0 0.0 0.0 0.00 0.00 0.00
20260507232957 60 166 4.0 7.0 0.00 0.00 0.00 72 1017.7
20260507232535 0 0.0 0.0 0.00 0.00 0.00
20260507232458 59 172 3.0 5.0 0.00 0.00 0.00 73 1017.8
20260507232035 0 0.0 0.0 0.00 0.00 0.00
20260507231957 60 167 3.0 4.0 0.00 0.00 0.00 72 1017.8
20260507231535 0 0.0 0.0 0.00 0.00 0.00
20260507231457 60 241 4.0 7.0 0.00 0.00 0.00 72 1017.8
20260507230957 60 163 5.0 7.0 0.00 0.00 0.00 72 1018.0
20260507230535 0 0.0 0.0 0.00 0.00 0.00
20260507230457 60 166 3.0 4.0 0.00 0.00 0.00 70 1018.0
20260507230036 0 0.0 0.0 0.00 0.00 0.00
20260507230000 59 155 3.0 4.0 0.00 0.00 0.00 73 1018.0
20260507225459 59 172 4.0 6.0 0.00 0.00 0.00 73 1018.1
20260507225036 0 0.0 0.0 0.00 0.00 0.00
20260507224958 59 273 2.0 3.0 0.00 0.00 0.00 73 1018.0
20260507224537 0 0.0 0.0 0.00 0.00 0.00
20260507224458 59 242 3.0 6.0 0.00 0.00 0.00 74 1018.1
20260507224036 0 0.0 0.0 0.00 0.00 0.00
20260507223958 58 258 4.0 8.0 0.00 0.00 0.00 74 1018.1
20260507223538 0 0.0 0.0 0.00 0.00 0.00
20260507223457 59 161 4.0 6.0 0.00 0.00 0.00 74 1018.2
20260507223034 0 0.0 0.0 0.00 0.00 0.00
20260507222957 58 218 5.0 7.0 0.00 0.00 0.00 76 1018.2
20260507222533 0 0.0 0.0 0.00 0.00 0.00
20260507222457 59 214 4.0 7.0 0.00 0.00 0.00 73 1018.3
20260507222034 0 0.0 0.0 0.00 0.00 0.00
20260507221957 58 167 3.0 5.0 0.00 0.00 0.00 75 1018.2
20260507221533 0 0.0 0.0 0.00 0.00 0.00
20260507221457 59 162 4.0 5.0 0.00 0.00 0.00 75 1018.4
20260507221034 0 0.0 0.0 0.00 0.00 0.00
20260507220957 58 168 2.0 5.0 0.00 0.00 0.00 74 1018.5
20260507220533 0 0.0 0.0 0.00 0.00 0.00
20260507220458 58 160 3.0 6.0 0.00 0.00 0.00 76 1018.6
20260507220034 0 0.0 0.0 0.00 0.00 0.00
20260507215957 56 170 3.0 5.0 0.00 0.00 0.00 78 1018.7
20260507215534 0 0.0 0.0 0.00 0.00 0.00
20260507215457 56 279 2.0 5.0 0.00 0.00 0.00 78 1018.7
20260507215035 0 0.0 0.0 0.00 0.00 0.00
20260507214958 56 228 2.0 4.0 0.00 0.00 0.00 78 1018.7
20260507214534 0 0.0 0.0 0.00 0.00 0.00
20260507214457 56 147 4.0 5.0 0.00 0.00 0.00 78 1018.7
20260507214031 0 0.0 0.0 0.00 0.00 0.00
20260507213958 57 229 1.0 2.0 0.00 0.00 0.00 77 1018.8
20260507213528 0 0.0 0.0 0.00 0.00 0.00
20260507213457 57 225 3.0 4.0 0.00 0.00 0.00 77 1018.8
20260507213029 0 0.0 0.0 0.00 0.00 0.00
20260507212957 57 237 2.0 4.0 0.00 0.00 0.00 78 1018.9
20260507212529 0 0.0 0.0 0.00 0.00 0.00
20260507212458 57 227 4.0 5.0 0.00 0.00 0.00 76 1019.0
20260507212029 0 0.0 0.0 0.00 0.00 0.00
20260507211957 56 150 1.0 2.0 0.00 0.00 0.00 79 1019.0
20260507211529 0 0.0 0.0 0.00 0.00 0.00
20260507211457 56 254 1.0 2.0 0.00 0.00 0.00 78 1019.1
20260507211028 0 0.0 0.0 0.00 0.00 0.00
20260507210957 56 247 4.0 5.0 0.00 0.00 0.00 78 1019.1
20260507210529 0 0.0 0.0 0.00 0.00 0.00
20260507210457 55 258 1.0 4.0 0.00 0.00 0.00 79 1019.1
20260507210029 0 0.0 0.0 0.00 0.00 0.00
20260507205957 55 197 4.0 6.0 0.00 0.00 0.00 80 1019.1
20260507205529 0 0.0 0.0 0.00 0.00 0.00
20260507205457 56 273 4.0 9.0 0.00 0.00 0.00 80 1019.2
20260507205030 0 0.0 0.0 0.00 0.00 0.00
20260507204957 56 271 4.0 7.0 0.00 0.00 0.00 81 1019.2
20260507204529 0 0.0 0.0 0.00 0.00 0.00
20260507204458 56 208 3.0 5.0 0.00 0.00 0.00 80 1019.3
20260507204029 0 0.0 0.0 0.00 0.00 0.00
20260507203957 55 227 3.0 7.0 0.00 0.00 0.00 81 1019.4
20260507203526 0 0.0 0.0 0.00 0.00 0.00
20260507203458 56 291 3.0 8.0 0.00 0.00 0.00 80 1019.4
20260507203023 0 0.0 0.0 0.00 0.00 0.00
20260507202957 55 269 1.0 4.0 0.00 0.00 0.00 82 1019.8
20260507202457 54 299 2.0 4.0 0.00 0.00 0.00 82 1019.7
20260507201957 54 184 2.0 3.0 0.00 0.00 0.00 84 1019.8
20260507201523 0 0.0 0.0 0.00 0.00 0.00
20260507201023 0 0.0 0.0 0.00 0.00 0.00
20260507201010 54 217 4.0 5.0 0.00 0.00 0.00 83 1019.8
20260507200522 0 0.0 0.0 0.00 0.00 0.00
20260507200458 54 279 1.0 3.0 0.00 0.00 0.00 83 1019.8
20260507200023 0 0.0 0.0 0.00 0.00 0.00
20260507195957 54 242 1.0 4.0 0.00 0.00 0.00 85 1019.8
20260507195522 0 0.0 0.0 0.00 0.00 0.00
20260507195458 53 310 1.0 4.0 0.00 0.00 0.00 85 1019.9
20260507195022 0 0.0 0.0 0.00 0.00 0.00
20260507194957 53 258 4.0 7.0 0.00 0.00 0.00 86 1019.9
20260507194458 53 320 2.0 3.0 0.00 0.00 0.00 87 1020.0
20260507194023 0 0.0 0.0 0.00 0.00 0.00
20260507193957 52 297 1.0 4.0 0.00 0.00 0.00 89 1020.0
20260507193523 0 0.0 0.0 0.00 0.00 0.00
20260507193458 51 320 1.0 2.0 0.00 0.00 0.00 90 1020.1
20260507193023 0 0.0 0.0 0.00 0.00 0.00
20260507192957 51 299 2.0 3.0 0.00 0.00 0.00 90 1020.2
20260507192523 0 0.0 0.0 0.00 0.00 0.00
20260507192458 50 286 3.0 5.0 0.00 0.00 0.00 91 1020.2
20260507192024 0 0.0 0.0 0.00 0.00 0.00
20260507191958 50 313 3.0 4.0 0.00 0.00 0.00 91 1020.2
20260507191524 0 0.0 0.0 0.00 0.00 0.00
20260507191458 50 298 3.0 4.0 0.00 0.00 0.00 92 1020.2
20260507190957 50 256 2.0 3.0 0.00 0.00 0.00 92 1020.2
20260507190514 0 0.0 0.0 0.00 0.00 0.00
20260507190500 49 286 3.0 5.0 0.00 0.00 0.00 92 1020.2
20260507190009 0 0.0 0.0 0.00 0.00 0.00
20260507185958 49 277 1.0 2.0 0.00 0.00 0.00 92 1020.3
20260507185511 0 0.0 0.0 0.00 0.00 0.00
20260507185458 49 290 3.0 4.0 0.00 0.00 0.00 92 1020.2
20260507185010 0 0.0 0.0 0.00 0.00 0.00
20260507184957 49 296 2.0 3.0 0.00 0.00 0.00 92 1020.3
20260507184458 49 327 2.0 4.0 0.00 0.00 0.00 92 1020.3
20260507184009 0 0.0 0.0 0.00 0.00 0.00
20260507183959 49 310 1.0 3.0 0.00 0.00 0.00 92 1020.4
20260507183457 49 279 2.0 3.0 0.00 0.00 0.00 91 1020.4
20260507182957 49 293 2.0 3.0 0.00 0.00 0.00 91 1020.4
20260507182500 49 291 3.0 6.0 0.00 0.00 0.00 91 1020.4
20260507182004 49 328 2.0 3.0 0.00 0.00 0.00 90 1020.4
20260507181457 49 319 2.0 4.0 0.00 0.00 0.00 90 1020.4
20260507181441 0 0.0 0.0 0.00 0.00 0.00
20260507180957 49 331 2.0 3.0 0.00 0.00 0.00 90 1020.4
20260507180940 0 0.0 0.0 0.00 0.00 0.00
20260507180440 0 0.0 0.0 0.00 0.00 0.00
20260507180010 49 296 1.0 2.0 0.00 0.00 0.00 89 1020.4
20260507175926 0 0.0 0.0 0.00 0.00 0.00
20260507175458 50 276 2.0 4.0 0.00 0.00 0.00 89 1020.4
20260507174957 50 264 0.0 2.0 0.00 0.00 0.00 89 1020.5
20260507174925 0 0.0 0.0 0.00 0.00 0.00
20260507174458 50 267 3.0 5.0 0.00 0.00 0.00 89 1020.5
20260507173958 50 306 3.0 5.0 0.00 0.00 0.00 88 1020.5
20260507173924 0 0.0 0.0 0.00 0.00 0.00
20260507173458 50 297 2.0 2.0 0.00 0.00 0.00 88 1020.4
20260507172957 50 277 2.0 4.0 0.00 0.00 0.00 87 1020.4
20260507172925 0 0.0 0.0 0.00 0.00 0.00
20260507172457 50 274 0.0 1.0 0.00 0.00 0.00 86 1020.3
20260507172425 0 0.0 0.0 0.00 0.00 0.00
20260507171959 50 318 2.0 2.0 0.00 0.00 0.00 84 1020.3
20260507171924 0 0.0 0.0 0.00 0.00 0.00
20260507171457 51 265 1.0 2.0 0.00 0.00 0.00 84 1020.3
20260507171429 0 0.0 0.0 0.00 0.00 0.00
20260507170958 51 260 1.0 2.0 0.00 0.00 0.00 83 1020.3
20260507170457 50 244 1.0 2.0 0.00 0.00 0.00 84 1020.3
20260507170411 0 0.0 0.0 0.00 0.00 0.00
20260507165957 50 259 1.0 2.0 0.00 0.00 0.00 84 1020.3
20260507165457 50 266 0.0 2.0 0.00 0.00 0.00 84 1020.3
20260507165356 0 0.0 0.0 0.00 0.00 0.00
20260507164957 50 284 1.0 2.0 0.00 0.00 0.00 83 1020.3
20260507164458 50 248 1.0 2.0 0.00 0.00 0.00 83 1020.3
20260507164357 0 0.0 0.0 0.00 0.00 0.00
20260507163957 50 203 2.0 2.0 0.00 0.00 0.00 82 1020.3
20260507163857 0 0.0 0.0 0.00 0.00 0.00
20260507163458 50 272 2.0 3.0 0.00 0.00 0.00 82 1020.3
20260507163357 0 0.0 0.0 0.00 0.00 0.00
20260507162958 50 247 1.0 2.0 0.00 0.00 0.00 82 1020.3
20260507162857 0 0.0 0.0 0.00 0.00 0.00
20260507162457 50 123 1.0 2.0 0.00 0.00 0.00 81 1020.3
20260507162357 0 0.0 0.0 0.00 0.00 0.00
20260507161959 51 241 1.0 3.0 0.00 0.00 0.00 81 1020.3
20260507161459 50 234 1.0 2.0 0.00 0.00 0.00 81 1020.3
20260507161342 0 0.0 0.0 0.00 0.00 0.00
20260507160958 50 225 2.0 2.0 0.00 0.00 0.00 80 1020.3
20260507160843 0 0.0 0.0 0.00 0.00 0.00
20260507160501 51 289 1.0 2.0 0.00 0.00 0.00 79 1020.3
20260507160342 0 0.0 0.0 0.00 0.00 0.00
20260507155957 51 267 2.0 2.0 0.00 0.00 0.00 79 1020.3
20260507155827 0 0.0 0.0 0.00 0.00 0.00
20260507155457 50 287 1.0 2.0 0.00 0.00 0.00 79 1020.3
20260507154959 51 306 2.0 2.0 0.00 0.00 0.00 78 1020.4
20260507154826 0 0.0 0.0 0.00 0.00 0.00
20260507154458 50 222 1.0 2.0 0.00 0.00 0.00 79 1020.5
20260507153958 50 248 1.0 2.0 0.00 0.00 0.00 78 1020.5
20260507153827 0 0.0 0.0 0.00 0.00 0.00